{"data":{"norad_id":64814,"intl_designator":"2025-150AA","name":"STARLINK-34668","alt_names":[],"object_type":"PAYLOAD","status":"ACTIVE","operator":null,"country":"US","launch_date":"2025-07-16","launch_site_code":"AFWTR","launch_vehicle":null,"mission":null,"orbit_class":"UNKNOWN","rcs_meters":null,"size_class":null,"mass_kg":null,"dimensions":null,"purposes":["comms"],"wikipedia_slug":null,"has_3d_model":false,"image_url":null,"decayed_at":null,"tle_current":{"epoch":"2026-09-20T14:13:52.444704Z","epoch_age_seconds":116291,"freshness":"FRESH","line1":"1 64814U 25150AA  26263.59296811  .00002864  00000+0  24765-3 0  9992","line2":"2 64814  70.0038   2.9400 0003369 264.1591  95.9184 14.98340933 65705","mean_motion":14.98340933,"eccentricity":0.0003369,"inclination_deg":70.0038,"raan_deg":2.94,"arg_perigee_deg":264.1591,"mean_anomaly_deg":95.9184,"bstar":0.00024765,"rev_number":6570,"period_min":96.106297858179,"perigee_km":569.68057315472,"apogee_km":574.36359034401,"semimajor_km":6950.1590817494,"source":"CELESTRAK","updated_at":"2026-09-21T09:00:35.447652Z"}}}